Regional Weather Roundup
Issued by NWS Goodland, KS

Home | Current Version | Previous Version | Graphics & Text | Print | Product List | Glossary On
Versions: 1 2 3 4 5 6 7 8 9 10 11 12 13 14 15 16 17 18 19 20 21 22 23 24 25 26 27 28 29 30 31 32 33 34 35 36 37 38 39 40 41 42 43 44 45 46 47 48 49 50
000
ASUS43 KGLD 271459
RWRGLD

GOODLAND FORECAST AREA HOURLY WEATHER ROUNDUP
NATIONAL WEATHER SERVICE GOODLAND KS
800 AM MST FRI FEB 27 2015

...OFFICIAL OBSERVATIONS...

CITY           SKY/WX    TMP DP  RH WIND       PRES   REMARKS
GOODLAND KS    LGT SNOW  10   6  84 SE16      30.28S FOG     WCI  -7
HILL CITY KS   CLOUDY    10   0  63 SE10      30.49R WCI  -4
IMPERIAL NEB   CLOUDY     7   0  73 SE14      30.32R WCI -10
MCCOOK NEB     CLOUDY    11   0  61 SE10      30.42S WCI  -3
AKRON CO       CLOUDY     8   6  92 SE17      30.13R FOG     WCI -10
BURLINGTON CO  LGT SNOW  10   5  80 SE20      30.21S WCI  -9
LIMON CO       CLOUDY     6   3  87 SE23      30.07R FOG     WCI -15
$$

...UNOFFICIAL OBSERVATIONS...

CITY           SKY/WX    TMP DP  RH WIND       PRES   REMARKS
COLBY KS       LGT SNOW  10   9  92 SE14      30.36S WCI  -5
GOVE KS          N/A     11  32 100 MISG        N/A
LENORA KS        N/A      8  32 100 S12         N/A  WCI  -7
NORTON KS      CLOUDY     9   0  66 SE9       30.46R
SHARON SPRINGS   N/A     12   9  87 SE14G21     N/A  WCI  -3
KIT CARSON CO    N/A      9   6  86 MISG        N/A
YUMA CO          N/A     10   6  82 SE14        N/A  WCI  -6
$$


USA.gov is the U.S. government's official web portal to all federal, state and local government web resources and services.